FENGYUN 1C DEB, 29781

Orbit data source: Space-Track

FENGYUN 1C DEB, 29781 is space debris in SSO originally from a launch on Mon, 10 May 1999 UTC launched from the Taiyaun Space Center, China (TSC). Fengyun 1C debris stems from the Chinese weather satellite Fengyun-1C, which was intentionally destroyed by a Chinese anti-satellite missile in 2007. This event dramatically increased the amount of space debris, with thousands of trackable fragments posing hazards to satellites and human spaceflight. The Fengyun 1C debris cloud has become a focal point in discussions about space sustainability and the need for international regulations to prevent the creation of new debris.

Loading next visibility...
Identifier
29781, 1999-025BX
Orbit
SSO
Country
Flag of CNCN / PRC
Related business
Manufacturer
Unknown
Mission
Spacecraft
Bus & Motor
Unknown
Mass
Unknown
Launch date (UTC)
1999-05-10 (27 years ago)
Launch vehicle
Unknown
Launch site
Taiyaun Space Center, China (TSC)
Object type
Payload
Rocket body
Debris
Shape & HBR
Unknown shape, 0.1 m
Radar Cross Section
Medium (>0.1 m² and <1 m²)

Expand to show TLE details & history
Last TLE update: 11 hours ago

TLE from 11 hours ago
0 FENGYUN 1C DEB
1 29781U 99025BX  26257.93682832  .00000541  00000-0  34934-3 0  9991
2 29781  98.8265 249.6494 0072622 118.4031 271.4905 14.05742103  5215
Epoch: 2026-09-14T22:29Z
TLE epoch observation values (Epoch: 2026-09-14T22:29:01.966Z)
Latitude
28.7313°
Longitude
-86.3762°
Altitude
876.521 km
Speed
7.417 km/s
True Right ascension
16h 19m 10s
True Declination
28° 35' 20"
Sunlit
Object was in daylight at epoch
Visualization orbit readout
Latitude
Unknown
Longitude
Unknown
Altitude
Unknown
Speed
Unknown
Apparent Right ascension
Unknown
Apparent Declination
Unknown
Sunlit
N/A
Visualization observer readout
Local Sidereal Time
02:13:55
Azimuth
Unknown
Elevation
Unknown
Doppler factor
Unknown
Orbital elements
Apogee altitude
923.808 km
Perigee altitude
818.516 km
Semi-major axis
7,249.299 km
Eccentricity
0.00726
Inclination
98.8265°
RAAN
249.6494°
Arg. of periapsis
118.4031°
True anomaly
270.65843°
Mean anomaly
271.4905°
Eccentric anomaly
271.07448°
Mean motion
3.51641 °/min
Orbital period
102.38 mins
BSTAR
0.00034934
Loading maneuver chart data...
Computing Atmospheric mass density...
Loading historical data...
Loading historical data...
Loading historical data...
Loading historical data...
Loading historical data...
Loading historical data...
Loading historical data...

Documentation

Showing up to 5 results
|